Regional Weather Roundup
Issued by NWS San Angelo, TX

Home | Current Version | Previous Version | Text Only | Print | Product List | Glossary On
Versions: 1 2 3 4 5 6 7 8 9 10 11 12 13 14 15 16 17 18 19 20 21 22 23 24 25 26 27 28 29 30 31 32 33 34 35 36 37 38 39 40 41 42 43 44 45 46 47 48 49 50
000
ASUS44 KSJT 280310
RWRSJT
WEST CENTRAL TEXAS REGIONAL WEATHER ROUNDUP
NATIONAL WEATHER SERVICE SAN ANGELO TX
1000 PM CDT THU JUL 27 2017

NOTE: "FAIR" INDICATES FEW OR NO CLOUDS BELOW 12,000 FEET WITH NO
SIGNIFICANT WEATHER AND/OR OBSTRUCTIONS TO VISIBILITY.

TXZ049-054-064>066-071>073-076>078-098-099-113-114-127-128-139-140-
154-155-168>170-280400
...LOCATIONS ACROSS WEST CENTRAL TEXAS...

CITY           SKY/WX    TMP DP  RH WIND       PRES   REMARKS
SAN ANGELO     CLEAR     89  55  31 S6        29.95R
ABILENE        PTCLDY    84  58  40 SE8       29.94R
DYESS AFB      PTCLDY    89  60  38 SE9       29.93R
JUNCTION       CLEAR     89  62  40 SE12      29.96R
SWEETWATER     CLOUDY    87  54  31 S5        30.00R
BROWNWOOD      CLEAR     84  59  42 SE7       29.94R
COLEMAN        CLEAR     86  58  38 S5        29.96R
SONORA         CLEAR     88  59  37 S6        30.01R
OZONA          FAIR      86  54  32 S7        30.01R
BRADY          NOT AVBL
$$

TEXAS PANHANDLE/OKLAHOMA PANHANDLE

CITY           SKY/WX    TMP DP  RH WIND       PRES   REMARKS
AMARILLO       MOCLDY    74  67  78 NE8       30.09R
BORGER         CLOUDY    78  69  73 NE5       30.06S
CANADIAN       CLOUDY    76  69  78 CALM      30.02S
DALHART        MOCLDY    76  69  79 E10       30.12R
DUMAS          PTCLDY    75  66  72 E7        30.11R
GUYMON         NOT AVBL
HEREFORD       CLOUDY    79  68  68 E13       30.10R
PAMPA          CLOUDY    74  69  86 N5        30.07S
PERRYTON       CLOUDY    75  73  92 CALM      30.06R
$$

SOUTHERN PANHANDLE/SOUTH PLAINS/ROLLING PLAINS

CITY           SKY/WX    TMP DP  RH WIND       PRES   REMARKS
LUBBOCK        CLOUDY    83  55  38 SE6       30.03R
SNYDER         PTCLDY    88  57  34 SE6       29.99R
CHILDRESS      CLOUDY    84  66  54 NE9       29.96R
SEMINOLE       CLEAR     83  53  34 SE6       30.04R
$$

PERMIAN BASIN

CITY           SKY/WX    TMP DP  RH WIND       PRES   REMARKS
MIDLAND        CLEAR     87  54  32 SE8       30.00R
ODESSA         CLEAR     89  54  30 S12       30.01R
WINK           CLEAR     88  53  30 SE12      29.97R
$$

FAR WEST/SOUTHWEST MOUNTAINS/TRANS PECOS

CITY           SKY/WX    TMP DP  RH WIND       PRES   REMARKS
ALPINE         CLEAR     78  53  41 S5        30.15R
DRYDEN           N/A     86  57  37 SE12      29.94R
EL PASO        MOCLDY    74  64  71 NW7       30.01R
FORT STOCKTON  CLEAR     85  57  38 SE13      29.99R
GUADALUPE PASS CLEAR     72  60  66 SW6       30.16R
MARFA          CLEAR     75  55  49 E8        30.13R
PECOS          CLEAR     89  54  30 SE13      29.95R
$$

DALLAS/FORT WORTH METROPLEX

CITY           SKY/WX    TMP DP  RH WIND       PRES   REMARKS
DFW AIRPORT    MOCLDY    90  66  45 S8        29.87S
FTW MEACHAM    CLOUDY    88  69  53 SE8       29.88S
DAL-EXECUTIVE  PTCLDY    87  68  52 SE6       29.89R
GRAND PRAIRIE  PTCLDY    89  65  44 SE3       29.91R
ADDISON        CLEAR     91  64  40 SE9       29.90S
MESQUITE       MOCLDY    82  70  65 SE5       29.90R
LANCASTER      PTCLDY    85  69  58 SE5       29.91R
$$

NORTH CENTRAL TEXAS

CITY           SKY/WX    TMP DP  RH WIND       PRES   REMARKS
SHRMAN/DENISON CLOUDY    86  68  54 S10       29.90R
GAINESVILLE    PTCLDY    82  71  70 CALM      29.92R
BRIDGEPORT     PTCLDY    85  67  54 SE6       29.91S
DENTON         CLEAR     84  72  67 S5        29.89R
WAXAHACHIE     PTCLDY    85  68  55 CALM      29.92R
GRANBURY       PTCLDY    89  66  46 SE3       29.91R
$$

WESTERN NORTH TEXAS

CITY           SKY/WX    TMP DP  RH WIND       PRES   REMARKS
WICHITA FALLS  PTCLDY    84  68  58 SE7       29.88R
VERNON         CLEAR     89  59  36 SE6       29.90R
BRECKENRIDGE   PTCLDY    88  60  38 SE8       29.92R
COMANCHE       CLOUDY    84  60  43 S6        29.94R
$$

CENTRAL AND SOUTH CENTRAL TEXAS

CITY           SKY/WX    TMP DP  RH WIND       PRES   REMARKS
AUSTIN/BERGSTM CLEAR     90  69  50 S15G24    29.92R
WACO           PTCLDY    89  67  47 SE8       29.90R
HILLSBORO      CLOUDY    89  66  46 SE6       29.91R
TEMPLE         CLEAR     90  68  48 S15       29.92R
KILLEEN-GRAY   CLEAR     90  64  43 S7        29.92R
FORT HOOD      CLEAR    N/A N/A N/A S10       29.90R
GEORGETOWN     CLEAR     90  70  51 S10       29.95R
LAGO VISTA     FAIR      88  66  48 S8        29.97R
SAN MARCOS     CLEAR     88  57  35 S13       29.95R
NEW BRAUNFELS  CLEAR     88  67  49 S17       29.93R
RANDOLPH AFB   CLEAR     87  64  46 S13       29.95R
SAN ANTONIO    PTCLDY    89  66  46 SE17      29.95R
STINSON        CLEAR     89  66  46 SE14      29.92R
PLEASANTON     NOT AVBL
LA GRANGE      CLEAR     87  74  64 S8        29.93R
GIDDINGS       CLEAR     87  69  55 S6        29.95R
$$

EAST TEXAS

CITY           SKY/WX    TMP DP  RH WIND       PRES   REMARKS
PARIS          PTCLDY    81  73  76 S6        29.91R
CLARKSVILLE    NOT AVBL
TYLER          CLOUDY    84  74  71 SE6       29.93R
LONGVIEW       PTCLDY    82  76  81 S5        29.92R
PALESTINE      PTCLDY    84  73  67 SE5       29.93S
NACOGDOCHES    CLOUDY    81  73  78 SE3       29.92R
$$

TEXAS HILL COUNTRY AND EDWARDS PLATEAU

CITY           SKY/WX    TMP DP  RH WIND       PRES   REMARKS
LLANO          CLEAR     88  64  45 S5        29.97R
HORSESHOE BAY  FAIR      86  64  46 S5        29.94S
KERRVILLE      CLEAR     83  66  56 SE3       29.98R
FREDERICKSBRG  CLEAR     84  61  45 CALM      29.98S
ROCKSPRINGS    NOT AVBL
HONDO          CLEAR     89  62  40 SE9       29.94R
UVALDE         CLEAR     88  63  42 CALM      29.93R
DEL RIO        PTCLDY    93  60  33 E9        29.88R
$$

SOUTHEAST TEXAS

CITY           SKY/WX    TMP DP  RH WIND       PRES   REMARKS
COLLEGE STN    CLEAR     89  71  55 S8        29.93R
CALDWELL       NOT AVBL
CROCKETT       CLEAR     82  73  74 CALM      29.96R
BRENHAM        CLEAR     89  72  56 S8        29.94S
HUNTSVILLE     CLEAR     87  71  58 S6        29.94S
CONROE         CLEAR     83  74  74 S8        29.94F
HOUSTON BUSH   PTCLDY    86  72  62 S7        29.95R
HOUSTON HOBBY  PTCLDY    85  74  69 S9        29.95S
PERLAND        CLEAR     85  74  69 S6        29.97S
WHARTON        CLEAR     81  74  78 S5        29.98R
$$

THE UPPER TEXAS COAST

CITY           SKY/WX    TMP DP  RH WIND       PRES   REMARKS
ORANGE         CLEAR     82  77  84 SW6       29.97S
PORT ARTHUR    CLEAR     81  77  88 S7        29.95S
GALVESTON      CLEAR     85  76  74 S13       29.97S
ANGLETON       CLEAR     81  77  88 S6        29.97R
BAY CITY       CLEAR     80  76  88 S6        29.96F
$$

TEXAS COASTAL BEND, RIO GRANDE PLAINS DEEP SOUTH TEXAS

CITY           SKY/WX    TMP DP  RH WIND       PRES   REMARKS
VICTORIA       CLEAR     83  74  74 S9        29.97R
BEEVILLE       FAIR      82  75  77 SE10      29.96R
ROCKPORT       PTCLDY    84  75  74 SE10      29.96R
PORT ARANSAS   PTCLDY    83  76  78 S10       29.96S
PORT LAVACA    CLEAR     79  74  84 S5        29.97S
CORPUS CHRISTI PTCLDY    82  77  84 S8        29.96R
KINGSVILLE NAS CLEAR     83  78  85 SE8       29.95R
COTULLA        CLEAR     90  66  45 SE22G28   29.91R
LAREDO         CLEAR     90  70  51 SE22G28   29.91R
BROWNSVILLE    CLEAR     81  77  88 SE8       29.97R
PORT ISABEL    PTCLDY    83  77  82 SE10      29.96S
HEBBRONVILLE   CLEAR     84  69  61 SE12G18   29.96R
MCALLEN        CLEAR     85  73  67 SE15G23   29.95R
WESLACO        CLEAR     83  73  72 SE8       29.95R
FALFURRIAS     CLEAR     83  73  73 SE8       29.94R
EDINBURG       CLEAR     85  71  63 SE10      29.95S
$$



USA.gov is the U.S. government's official web portal to all federal, state and local government web resources and services.